Weather History for Saginaw Browne, MI

Change the Weather History Date:

Friday, January 4, 2013

  Actual Average (KMBS) Record (KMBS)
Temperature  
Mean Temperature 30 °F 23 °F  
Max Temperature 33 °F 30 °F 57 °F (1997)
Min Temperature 28 °F 17 °F 10 °F (1999)
Degree Days  
Heating Degree Days 34    
Month to date heating degree days  
Since 1 July heating degree days  
Cooling Degree Days 0    
Month to date cooling degree days  
Year to date cooling degree days  
Moisture  
Dew Point 23 °F    
Average Humidity 74    
Maximum Humidity 80    
Minimum Humidity 69    
Precipitation  
Precipitation 0.00 in 0.07 in 0.41 in (1997)
Month to date precipitation 0.26  
Year to date precipitation 0.26  
Snow  
Snow 0.00 in - - ()
Month to date snowfall  
Since 1 July snowfall  
Snow Depth -    
Sea Level Pressure  
Sea Level Pressure 30.00 in    
Wind  
Wind Speed 17 mph (WSW)    
Max Wind Speed 26 mph    
Max Gust Speed 36 mph    
Visibility 10 miles    
Events      
T = Trace of Precipitation, MM = Missing Value Source: NWS Daily Summary

Daily Weather History Graph

Daily Weather History Graph

Search for Another Location

Airport:

Trip Planner

Search our weather history database for the weather conditions in past years. The results will help you decide how hot, cold, wet, or windy it might be!

Date:

Astronomy

Jan. 04, 2013 Rise Set
Actual Time 8:08 AM EST 5:13 PM EST
Civil Twilight 7:35 AM EST 5:45 PM EST
Nautical Twilight 7:00 AM EST 6:21 PM EST
Astronomical Twilight 6:25 AM EST 6:55 PM EST
Moon No Moon Rise 11:36 AM EST (1/4)
Length of Visible Light 10h 09m
Length of Day
9h 04m
Waning Gibbous, 55% of the Moon is Illuminated
Jan 4
Waning Gibbous
Jan 4
Last Quarter
Jan 11
New
Jan 18
First Quarter
Jan 26
Full

Hourly Weather History & Observations

Time (EST) Temp. Windchill Dew Point Humidity Pressure Visibility Wind Dir Wind Speed Gust Speed Precip Events Conditions
12:11 AM 30.2 °F 18.9 °F 21.2 °F 69% 30.06 in 10.0 mi WSW 16.1 mph 23.0 mph N/A   Overcast
12:31 AM 28.4 °F 17.0 °F 21.2 °F 74% 30.05 in 10.0 mi WSW 15.0 mph 25.3 mph N/A   Overcast
12:51 AM 30.2 °F 17.4 °F 21.2 °F 69% 30.04 in 10.0 mi WSW 20.7 mph 25.3 mph N/A   Overcast
1:11 AM 30.2 °F 18.1 °F 21.2 °F 69% 30.04 in 10.0 mi WSW 18.4 mph 25.3 mph N/A   Overcast
1:32 AM 30.2 °F 18.5 °F 21.2 °F 69% 30.03 in 10.0 mi WSW 17.3 mph 23.0 mph N/A   Overcast
1:52 AM 30.2 °F 18.9 °F 23.0 °F 75% 30.03 in 10.0 mi WSW 16.1 mph 24.2 mph N/A   Overcast
2:34 AM 30.2 °F 18.5 °F 23.0 °F 75% 30.02 in 10.0 mi WSW 17.3 mph 24.2 mph N/A   Overcast
2:54 AM 30.2 °F 18.1 °F 23.0 °F 75% 30.01 in 10.0 mi WSW 18.4 mph 24.2 mph N/A   Scattered Clouds
3:09 AM 30.2 °F 19.3 °F 23.0 °F 75% 30.01 in 10.0 mi WSW 15.0 mph 23.0 mph N/A   Scattered Clouds
3:32 AM 28.4 °F 15.8 °F 23.0 °F 80% 30.00 in 10.0 mi SW 18.4 mph 24.2 mph N/A   Clear
3:52 AM 28.4 °F 16.2 °F 23.0 °F 80% 30.00 in 10.0 mi WSW 17.3 mph - N/A   Clear
4:12 AM 28.4 °F 17.0 °F 23.0 °F 80% 30.01 in 10.0 mi WSW 15.0 mph 20.7 mph N/A   Scattered Clouds
4:32 AM 28.4 °F 16.2 °F 23.0 °F 80% 30.00 in 10.0 mi WSW 17.3 mph 25.3 mph N/A   Scattered Clouds
4:52 AM 28.4 °F 15.4 °F 21.2 °F 74% 29.99 in 10.0 mi WSW 19.6 mph 27.6 mph N/A   Clear
5:12 AM 28.4 °F 16.2 °F 21.2 °F 74% 29.98 in 10.0 mi WSW 17.3 mph 24.2 mph N/A   Clear
5:32 AM 28.4 °F 16.2 °F 21.2 °F 74% 29.98 in 10.0 mi SW 17.3 mph 25.3 mph N/A   Clear
5:52 AM 28.4 °F 14.7 °F 21.2 °F 74% 29.97 in 10.0 mi SW 21.9 mph 27.6 mph N/A   Clear
6:33 AM 28.4 °F 15.4 °F 21.2 °F 74% 29.97 in 10.0 mi WSW 19.6 mph 26.5 mph N/A   Clear
6:53 AM 28.4 °F 15.8 °F 23.0 °F 80% 29.97 in 10.0 mi SW 18.4 mph 25.3 mph N/A   Clear
7:13 AM 28.4 °F 16.6 °F 21.2 °F 74% 29.98 in 10.0 mi WSW 16.1 mph 24.2 mph N/A   Clear
7:33 AM 28.4 °F 17.5 °F 21.2 °F 74% 29.99 in 10.0 mi WSW 13.8 mph 23.0 mph N/A   Clear
8:13 AM 28.4 °F 16.6 °F 21.2 °F 74% 29.99 in 10.0 mi WSW 16.1 mph 26.5 mph N/A   Clear
8:33 AM 28.4 °F 15.4 °F 21.2 °F 74% 29.98 in 10.0 mi WSW 19.6 mph 25.3 mph N/A   Clear
8:53 AM 28.4 °F 15.4 °F 21.2 °F 74% 29.97 in 10.0 mi WSW 19.6 mph 28.8 mph N/A   Clear
9:14 AM 28.4 °F 15.4 °F 21.2 °F 74% 29.97 in 10.0 mi WSW 19.6 mph 32.2 mph N/A   Clear
9:34 AM 28.4 °F 14.7 °F 21.2 °F 74% 29.98 in 10.0 mi WSW 21.9 mph 28.8 mph N/A   Scattered Clouds
9:54 AM 28.4 °F 15.8 °F 21.2 °F 74% 29.98 in 10.0 mi WSW 18.4 mph 27.6 mph N/A   Scattered Clouds
10:14 AM 30.2 °F 17.1 °F 23.0 °F 75% 29.98 in 10.0 mi WSW 21.9 mph 26.5 mph N/A   Clear
10:34 AM 30.2 °F 16.5 °F 23.0 °F 75% 29.98 in 10.0 mi SW 24.2 mph - N/A   Clear
10:54 AM 30.2 °F 16.5 °F 23.0 °F 75% 29.98 in 10.0 mi WSW 24.2 mph 28.8 mph N/A   Clear
11:14 AM 32.0 °F 19.8 °F 23.0 °F 69% 29.96 in 10.0 mi SW 20.7 mph 32.2 mph N/A   Clear
11:34 AM 32.0 °F 19.2 °F 23.0 °F 69% 29.94 in 10.0 mi SW 23.0 mph 28.8 mph N/A   Clear
11:54 AM 32.0 °F 19.8 °F 23.0 °F 69% 29.95 in 10.0 mi WSW 20.7 mph 33.4 mph N/A   Clear
12:14 PM 32.0 °F 20.8 °F 23.0 °F 69% 29.95 in 10.0 mi SW 17.3 mph 27.6 mph N/A   Clear
12:35 PM 32.0 °F 20.1 °F 23.0 °F 69% 29.95 in 10.0 mi WSW 19.6 mph 25.3 mph N/A   Clear
12:55 PM 32.0 °F 19.5 °F 23.0 °F 69% 29.94 in 10.0 mi WSW 21.9 mph 28.8 mph N/A   Scattered Clouds
1:15 PM 33.8 °F 23.2 °F 24.8 °F 70% 29.94 in 10.0 mi WSW 17.3 mph 26.5 mph N/A   Scattered Clouds
1:35 PM 33.8 °F 23.2 °F 24.8 °F 70% 29.93 in 10.0 mi WSW 17.3 mph 28.8 mph N/A   Scattered Clouds
1:55 PM 33.8 °F 23.9 °F 24.8 °F 70% 29.93 in 10.0 mi WSW 15.0 mph 27.6 mph N/A   Scattered Clouds
2:15 PM 33.8 °F 22.8 °F 24.8 °F 70% 29.93 in 10.0 mi WSW 18.4 mph 26.5 mph N/A   Clear
2:35 PM 33.8 °F 22.8 °F 26.6 °F 75% 29.92 in 10.0 mi WSW 18.4 mph 24.2 mph N/A   Scattered Clouds
2:55 PM 33.8 °F 22.2 °F 24.8 °F 70% 29.93 in 10.0 mi West 20.7 mph 26.5 mph N/A   Scattered Clouds
3:15 PM 33.8 °F 23.2 °F 24.8 °F 70% 29.93 in 10.0 mi WSW 17.3 mph 25.3 mph N/A   Scattered Clouds
3:35 PM 33.8 °F 20.8 °F 24.8 °F 70% 29.94 in 10.0 mi WSW 26.5 mph 31.1 mph N/A   Clear
3:50 PM 33.8 °F 20.8 °F 24.8 °F 70% 29.95 in 10.0 mi WSW 26.5 mph 35.7 mph N/A   Clear
4:11 PM 32.0 °F 19.5 °F 24.8 °F 75% 29.95 in 10.0 mi WSW 21.9 mph 32.2 mph N/A   Clear
4:31 PM 32.0 °F 19.8 °F 24.8 °F 75% 29.97 in 10.0 mi West 20.7 mph 28.8 mph N/A   Clear
4:51 PM 32.0 °F 20.8 °F 24.8 °F 75% 29.97 in 10.0 mi West 17.3 mph 26.5 mph N/A   Clear
5:11 PM 32.0 °F 20.8 °F 23.0 °F 69% 29.98 in 10.0 mi WSW 17.3 mph 26.5 mph N/A   Clear
5:31 PM 32.0 °F 20.5 °F 23.0 °F 69% 29.99 in 10.0 mi West 18.4 mph 25.3 mph N/A   Clear
5:51 PM 32.0 °F 20.8 °F 23.0 °F 69% 30.00 in 10.0 mi West 17.3 mph 25.3 mph N/A   Clear
6:11 PM 32.0 °F 21.2 °F 23.0 °F 69% 30.00 in 10.0 mi WSW 16.1 mph 26.5 mph N/A   Clear
6:31 PM 30.2 °F 19.3 °F 23.0 °F 75% 30.01 in 10.0 mi West 15.0 mph 24.2 mph N/A   Clear
6:51 PM 30.2 °F 18.9 °F 23.0 °F 75% 30.02 in 10.0 mi West 16.1 mph 23.0 mph N/A   Clear
7:11 PM 30.2 °F 18.9 °F 23.0 °F 75% 30.03 in 10.0 mi WSW 16.1 mph 19.6 mph N/A   Clear
7:32 PM 30.2 °F 19.8 °F 23.0 °F 75% 30.04 in 10.0 mi WSW 13.8 mph - N/A   Clear
7:52 PM 30.2 °F 19.3 °F 23.0 °F 75% 30.06 in 10.0 mi West 15.0 mph 20.7 mph N/A   Clear
8:12 PM 30.2 °F 19.8 °F 23.0 °F 75% 30.07 in 10.0 mi West 13.8 mph 19.6 mph N/A   Clear
8:32 PM 30.2 °F 19.8 °F 23.0 °F 75% 30.07 in 10.0 mi West 13.8 mph - N/A   Clear
8:52 PM 30.2 °F 19.3 °F 23.0 °F 75% 30.08 in 10.0 mi West 15.0 mph 20.7 mph N/A   Clear
9:12 PM 28.4 °F 17.5 °F 23.0 °F 80% 30.08 in 10.0 mi West 13.8 mph - N/A   Clear
9:32 PM 28.4 °F 18.5 °F 23.0 °F 80% 30.09 in 10.0 mi West 11.5 mph - N/A   Clear
9:52 PM 28.4 °F 18.0 °F 23.0 °F 80% 30.09 in 10.0 mi West 12.7 mph - N/A   Clear
10:12 PM 30.2 °F 20.8 °F 23.0 °F 75% 30.09 in 10.0 mi West 11.5 mph 17.3 mph N/A   Clear
10:32 PM 28.4 °F 18.5 °F 23.0 °F 80% 30.10 in 10.0 mi West 11.5 mph 17.3 mph N/A   Clear
10:53 PM 28.4 °F 19.7 °F 23.0 °F 80% 30.11 in 10.0 mi WSW 9.2 mph - N/A   Clear
11:13 PM 28.4 °F 19.1 °F 23.0 °F 80% 30.12 in 10.0 mi West 10.4 mph - N/A   Clear
11:33 PM 28.4 °F 19.1 °F 23.0 °F 80% 30.13 in 10.0 mi WSW 10.4 mph - N/A   Clear
11:53 PM 28.4 °F 19.7 °F 23.0 °F 80% 30.14 in 10.0 mi WSW 9.2 mph - N/A   Clear